^^
Paulen-Weather Station Historical Data
Daily Summary for May 22, 2022 Units:  Both    English   Metric
Daily Weekly Monthly Yearly Custom
  High: Low: Average:
Temperature: 59 °F /  15 °C 48.2 °F /  9 °C 54 °F /  12.2 °C
Dew Point: 51.8 °F /  11 °C 44.6 °F /  7 °C 49.3 °F /  9.6 °C
Humidity: 95% 73% 84%
Wind Speed: 20.5mph /  33km/h - 6.6mph /  10.7km/h
Wind Gust: 18mph /  29km/h - -
Wind- - NNW
Pressure: 29.9 in /  1013.31 hPa 29.9 in /  1011.45 hPa -
Precipitation: 0 in /  0 mm    
Historical Graphs
 
 
Tabular Data for May 22, 2022
Time Temperature Dew Point Pressure Wind Wind Speed Wind Gust Humidity Rainfall Rate (Hourly) solar
00:04 51.8 °F /  11 °C 46.4 °F /  8 °C 29.9in /  1012.8hPa WNW 1.9mph /  3km/h 1.2mph /  2km/h 84% 0in /  0mm 0 W/m2
00:09 51.8 °F /  11 °C 46.4 °F /  8 °C 29.9in /  1012.84hPa Calm     84% 0in /  0mm 0 W/m2
00:14 51.8 °F /  11 °C 46.4 °F /  8 °C 29.9in /  1012.9hPa WNW 0.6mph /  1km/h   84% 0in /  0mm 0 W/m2
00:19 51.8 °F /  11 °C 46.4 °F /  8 °C 29.9in /  1012.94hPa NW 1.2mph /  2km/h 0.6mph /  1km/h 84% 0in /  0mm 0 W/m2
00:24 51.8 °F /  11 °C 46.4 °F /  8 °C 29.9in /  1012.94hPa Calm     85% 0in /  0mm 0 W/m2
00:29 51.8 °F /  11 °C 46.4 °F /  8 °C 29.9in /  1013hPa Calm     85% 0in /  0mm 0 W/m2
00:34 51.8 °F /  11 °C 46.4 °F /  8 °C 29.9in /  1013.04hPa WNW 1.2mph /  2km/h 0.6mph /  1km/h 85% 0in /  0mm 0 W/m2
00:39 51.8 °F /  11 °C 46.4 °F /  8 °C 29.9in /  1013.07hPa WNW 1.2mph /  2km/h 1.2mph /  2km/h 85% 0in /  0mm 0 W/m2
00:44 51.8 °F /  11 °C 46.4 °F /  8 °C 29.9in /  1013.07hPa WNW 2.5mph /  4km/h 1.2mph /  2km/h 85% 0in /  0mm 0 W/m2
00:49 51.8 °F /  11 °C 46.4 °F /  8 °C 29.9in /  1013.04hPa WNW 3.1mph /  5km/h 2.5mph /  4km/h 85% 0in /  0mm 0 W/m2
00:54 51.8 °F /  11 °C 46.4 °F /  8 °C 29.9in /  1012.97hPa NW 3.7mph /  6km/h 3.1mph /  5km/h 84% 0in /  0mm 0 W/m2
00:59 51.8 °F /  11 °C 46.4 °F /  8 °C 29.9in /  1012.97hPa NW 3.1mph /  5km/h 3.1mph /  5km/h 83% 0in /  0mm 0 W/m2
01:04 51.8 °F /  11 °C 46.4 °F /  8 °C 29.9in /  1012.94hPa NW 3.1mph /  5km/h 3.1mph /  5km/h 83% 0in /  0mm 0 W/m2
01:09 51.8 °F /  11 °C 46.4 °F /  8 °C 29.9in /  1012.97hPa NW 2.5mph /  4km/h 1.9mph /  3km/h 83% 0in /  0mm 0 W/m2
01:14 51.8 °F /  11 °C 46.4 °F /  8 °C 29.9in /  1012.94hPa NW 3.1mph /  5km/h 2.5mph /  4km/h 83% 0in /  0mm 0 W/m2
01:19 51.8 °F /  11 °C 46.4 °F /  8 °C 29.9in /  1012.94hPa NW 2.5mph /  4km/h 2.5mph /  4km/h 83% 0in /  0mm 0 W/m2
01:24 51.8 °F /  11 °C 46.4 °F /  8 °C 29.9in /  1012.9hPa NW 2.5mph /  4km/h 1.9mph /  3km/h 83% 0in /  0mm 0 W/m2
01:29 51.8 °F /  11 °C 46.4 °F /  8 °C 29.9in /  1012.87hPa NW 0.6mph /  1km/h   83% 0in /  0mm 0 W/m2
01:34 51.8 °F /  11 °C 46.4 °F /  8 °C 29.9in /  1012.9hPa Calm     85% 0in /  0mm 0 W/m2
01:39 51.8 °F /  11 °C 46.4 °F /  8 °C 29.9in /  1012.9hPa Calm     85% 0in /  0mm 0 W/m2
01:44 50 °F /  10 °C 46.4 °F /  8 °C 29.9in /  1012.94hPa Calm     85% 0in /  0mm 0 W/m2
01:49 50 °F /  10 °C 46.4 °F /  8 °C 29.9in /  1012.94hPa Calm     85% 0in /  0mm 0 W/m2
01:54 50 °F /  10 °C 46.4 °F /  8 °C 29.9in /  1012.94hPa Calm     86% 0in /  0mm 0 W/m2
01:59 50 °F /  10 °C 46.4 °F /  8 °C 29.9in /  1012.94hPa Calm     86% 0in /  0mm 0 W/m2
02:04 50 °F /  10 °C 46.4 °F /  8 °C 29.9in /  1012.87hPa Calm     86% 0in /  0mm 0 W/m2
02:09 50 °F /  10 °C 46.4 °F /  8 °C 29.9in /  1012.84hPa Calm     87% 0in /  0mm 0 W/m2
02:14 50 °F /  10 °C 46.4 °F /  8 °C 29.9in /  1012.77hPa Calm     87% 0in /  0mm 0 W/m2
02:19 50 °F /  10 °C 46.4 °F /  8 °C 29.9in /  1012.77hPa Calm     86% 0in /  0mm 0 W/m2
02:24 50 °F /  10 °C 46.4 °F /  8 °C 29.9in /  1012.8hPa Calm     85% 0in /  0mm 0 W/m2
02:29 50 °F /  10 °C 46.4 °F /  8 °C 29.9in /  1012.84hPa NW 0.6mph /  1km/h   85% 0in /  0mm 0 W/m2
02:34 50 °F /  10 °C 46.4 °F /  8 °C 29.9in /  1012.8hPa Calm     85% 0in /  0mm 0 W/m2
02:39 50 °F /  10 °C 46.4 °F /  8 °C 29.9in /  1012.84hPa Calm     85% 0in /  0mm 0 W/m2
02:44 50 °F /  10 °C 46.4 °F /  8 °C 29.9in /  1012.84hPa Calm     85% 0in /  0mm 0 W/m2
02:49 50 °F /  10 °C 46.4 °F /  8 °C 29.9in /  1012.94hPa Calm     85% 0in /  0mm 0 W/m2
02:54 50 °F /  10 °C 46.4 °F /  8 °C 29.9in /  1012.94hPa Calm     86% 0in /  0mm 0 W/m2
02:59 50 °F /  10 °C 46.4 °F /  8 °C 29.9in /  1012.97hPa Calm     86% 0in /  0mm 0 W/m2
03:04 50 °F /  10 °C 46.4 °F /  8 °C 29.9in /  1012.97hPa Calm     86% 0in /  0mm 0 W/m2
03:09 50 °F /  10 °C 46.4 °F /  8 °C 29.9in /  1012.94hPa Calm     87% 0in /  0mm 0 W/m2
03:14 50 °F /  10 °C 46.4 °F /  8 °C 29.9in /  1012.87hPa Calm     88% 0in /  0mm 0 W/m2
03:19 48.2 °F /  9 °C 46.4 °F /  8 °C 29.9in /  1012.9hPa Calm     88% 0in /  0mm 0 W/m2
03:24 48.2 °F /  9 °C 46.4 °F /  8 °C 29.9in /  1012.9hPa Calm     89% 0in /  0mm 0 W/m2
03:29 48.2 °F /  9 °C 46.4 °F /  8 °C 29.9in /  1012.87hPa Calm     89% 0in /  0mm 0 W/m2
03:34 48.2 °F /  9 °C 46.4 °F /  8 °C 29.9in /  1012.87hPa Calm     89% 0in /  0mm 0 W/m2
03:39 48.2 °F /  9 °C 46.4 °F /  8 °C 29.9in /  1012.94hPa Calm     89% 0in /  0mm 0 W/m2
03:44 48.2 °F /  9 °C 46.4 °F /  8 °C 29.9in /  1012.97hPa Calm     90% 0in /  0mm 0 W/m2
03:49 48.2 °F /  9 °C 46.4 °F /  8 °C 29.9in /  1012.97hPa Calm     90% 0in /  0mm 0 W/m2
03:54 48.2 °F /  9 °C 46.4 °F /  8 °C 29.9in /  1012.97hPa Calm     90% 0in /  0mm 0 W/m2
03:59 48.2 °F /  9 °C 46.4 °F /  8 °C 29.9in /  1012.94hPa Calm     90% 0in /  0mm 0 W/m2
04:04 48.2 °F /  9 °C 46.4 °F /  8 °C 29.9in /  1012.94hPa Calm     90% 0in /  0mm 0 W/m2
04:09 48.2 °F /  9 °C 46.4 °F /  8 °C 29.9in /  1012.97hPa WNW 0.6mph /  1km/h   91% 0in /  0mm 0 W/m2
04:14 48.2 °F /  9 °C 46.4 °F /  8 °C 29.9in /  1012.94hPa Calm     91% 0in /  0mm 0 W/m2
04:19 48.2 °F /  9 °C 46.4 °F /  8 °C 29.9in /  1012.9hPa Calm     91% 0in /  0mm 0 W/m2
04:24 48.2 °F /  9 °C 44.6 °F /  7 °C 29.9in /  1012.9hPa Calm     91% 0in /  0mm 0 W/m2
04:29 48.2 °F /  9 °C 44.6 °F /  7 °C 29.9in /  1013hPa Calm     91% 0in /  0mm 0 W/m2
04:34 48.2 °F /  9 °C 44.6 °F /  7 °C 29.9in /  1013.04hPa WNW 0.6mph /  1km/h   91% 0in /  0mm 0 W/m2
04:39 48.2 °F /  9 °C 44.6 °F /  7 °C 29.9in /  1013hPa WNW 0.6mph /  1km/h   91% 0in /  0mm 5 W/m2
04:44 48.2 °F /  9 °C 44.6 °F /  7 °C 29.9in /  1013hPa Calm     91% 0in /  0mm 5 W/m2
04:49 48.2 °F /  9 °C 44.6 °F /  7 °C 29.9in /  1013hPa WNW 0.6mph /  1km/h   91% 0in /  0mm 7 W/m2
04:54 48.2 °F /  9 °C 46.4 °F /  8 °C 29.9in /  1013hPa Calm     91% 0in /  0mm 7 W/m2
04:59 48.2 °F /  9 °C 46.4 °F /  8 °C 29.9in /  1013.07hPa WNW 1.2mph /  2km/h   91% 0in /  0mm 11 W/m2
05:04 48.2 °F /  9 °C 46.4 °F /  8 °C 29.9in /  1013.07hPa WNW 0.6mph /  1km/h   91% 0in /  0mm 14 W/m2
05:09 48.2 °F /  9 °C 46.4 °F /  8 °C 29.9in /  1013.04hPa NW 0.6mph /  1km/h   91% 0in /  0mm 26 W/m2
05:14 48.2 °F /  9 °C 46.4 °F /  8 °C 29.9in /  1013.04hPa WNW 0.6mph /  1km/h   91% 0in /  0mm 32 W/m2
05:19 48.2 °F /  9 °C 46.4 °F /  8 °C 29.9in /  1013hPa Calm     91% 0in /  0mm 32 W/m2
05:24 48.2 °F /  9 °C 46.4 °F /  8 °C 29.9in /  1013hPa Calm     91% 0in /  0mm 28 W/m2
05:29 48.2 °F /  9 °C 44.6 °F /  7 °C 29.9in /  1013hPa Calm     91% 0in /  0mm 37 W/m2
05:34 48.2 °F /  9 °C 44.6 °F /  7 °C 29.9in /  1012.94hPa Calm     91% 0in /  0mm 42 W/m2
05:39 48.2 °F /  9 °C 44.6 °F /  7 °C 29.9in /  1012.94hPa Calm     91% 0in /  0mm 42 W/m2
05:44 48.2 °F /  9 °C 44.6 °F /  7 °C 29.9in /  1012.94hPa Calm     90% 0in /  0mm 60 W/m2
05:49 48.2 °F /  9 °C 44.6 °F /  7 °C 29.9in /  1012.97hPa Calm     90% 0in /  0mm 81 W/m2
05:54 48.2 °F /  9 °C 46.4 °F /  8 °C 29.9in /  1012.97hPa Calm     90% 0in /  0mm 91 W/m2
05:59 48.2 °F /  9 °C 46.4 °F /  8 °C 29.9in /  1013.04hPa Calm     90% 0in /  0mm 98 W/m2
06:04 48.2 °F /  9 °C 46.4 °F /  8 °C 29.9in /  1013.11hPa Calm     89% 0in /  0mm 95 W/m2
06:09 48.2 °F /  9 °C 46.4 °F /  8 °C 29.9in /  1013.11hPa Calm     89% 0in /  0mm 74 W/m2
06:14 50 °F /  10 °C 46.4 °F /  8 °C 29.9in /  1013.11hPa Calm     89% 0in /  0mm 83 W/m2
06:19 48.2 °F /  9 °C 46.4 °F /  8 °C 29.9in /  1013.11hPa Calm     89% 0in /  0mm 77 W/m2
06:24 48.2 °F /  9 °C 46.4 °F /  8 °C 29.9in /  1013.11hPa Calm     89% 0in /  0mm 72 W/m2
06:29 48.2 °F /  9 °C 46.4 °F /  8 °C 29.9in /  1013.07hPa Calm     88% 0in /  0mm 77 W/m2
06:34 48.2 °F /  9 °C 46.4 °F /  8 °C 29.9in /  1013.04hPa Calm     88% 0in /  0mm 93 W/m2
06:39 50 °F /  10 °C 46.4 °F /  8 °C 29.9in /  1013.07hPa Calm     88% 0in /  0mm 107 W/m2
06:44 50 °F /  10 °C 46.4 °F /  8 °C 29.9in /  1013.07hPa Calm     88% 0in /  0mm 137 W/m2
06:49 50 °F /  10 °C 46.4 °F /  8 °C 29.9in /  1013.11hPa Calm     87% 0in /  0mm 146 W/m2
06:54 50 °F /  10 °C 46.4 °F /  8 °C 29.9in /  1013.07hPa Calm     86% 0in /  0mm 151 W/m2
06:59 50 °F /  10 °C 46.4 °F /  8 °C 29.9in /  1013.11hPa Calm     86% 0in /  0mm 151 W/m2
07:04 50 °F /  10 °C 46.4 °F /  8 °C 29.9in /  1013.11hPa Calm     85% 0in /  0mm 141 W/m2
07:09 50 °F /  10 °C 46.4 °F /  8 °C 29.9in /  1013.11hPa Calm     85% 0in /  0mm 183 W/m2
07:14 51.8 °F /  11 °C 46.4 °F /  8 °C 29.9in /  1013.11hPa Calm     85% 0in /  0mm 229 W/m2
07:19 51.8 °F /  11 °C 46.4 °F /  8 °C 29.9in /  1013.11hPa Calm     85% 0in /  0mm 239 W/m2
07:24 51.8 °F /  11 °C 48.2 °F /  9 °C 29.9in /  1013.11hPa Calm     84% 0in /  0mm 260 W/m2
07:29 53.6 °F /  12 °C 48.2 °F /  9 °C 29.9in /  1013.11hPa Calm     84% 0in /  0mm 278 W/m2
07:34 53.6 °F /  12 °C 48.2 °F /  9 °C 29.9in /  1013.11hPa Calm     82% 0in /  0mm 294 W/m2
07:39 53.6 °F /  12 °C 48.2 °F /  9 °C 29.9in /  1013.11hPa Calm     82% 0in /  0mm 309 W/m2
07:44 53.6 °F /  12 °C 48.2 °F /  9 °C 29.9in /  1013.11hPa Calm     83% 0in /  0mm 323 W/m2
07:49 53.6 °F /  12 °C 48.2 °F /  9 °C 29.9in /  1013.11hPa Calm     82% 0in /  0mm 341 W/m2
07:54 53.6 °F /  12 °C 48.2 °F /  9 °C 29.9in /  1013.17hPa Calm     81% 0in /  0mm 346 W/m2
07:59 55.4 °F /  13 °C 48.2 °F /  9 °C 29.9in /  1013.28hPa Calm     79% 0in /  0mm 346 W/m2
08:04 53.6 °F /  12 °C 48.2 °F /  9 °C 29.9in /  1013.31hPa Calm     77% 0in /  0mm 348 W/m2
08:09 55.4 °F /  13 °C 48.2 °F /  9 °C 29.9in /  1013.31hPa Calm     78% 0in /  0mm 357 W/m2
08:14 55.4 °F /  13 °C 48.2 °F /  9 °C 29.9in /  1013.31hPa Calm     78% 0in /  0mm 371 W/m2
08:19 55.4 °F /  13 °C 48.2 °F /  9 °C 29.9in /  1013.28hPa Calm     78% 0in /  0mm 376 W/m2
08:24 55.4 °F /  13 °C 48.2 °F /  9 °C 29.9in /  1013.24hPa SSE 1.2mph /  2km/h 0.6mph /  1km/h 78% 0in /  0mm 392 W/m2
08:29 53.6 °F /  12 °C 48.2 °F /  9 °C 29.9in /  1013.24hPa S 0.6mph /  1km/h   79% 0in /  0mm 387 W/m2
08:34 53.6 °F /  12 °C 48.2 °F /  9 °C 29.9in /  1013.21hPa Calm     79% 0in /  0mm 367 W/m2
08:39 55.4 °F /  13 °C 48.2 °F /  9 °C 29.9in /  1013.21hPa Calm     79% 0in /  0mm 376 W/m2
08:44 55.4 °F /  13 °C 48.2 °F /  9 °C 29.9in /  1013.21hPa Calm     79% 0in /  0mm 378 W/m2
08:49 55.4 °F /  13 °C 48.2 °F /  9 °C 29.9in /  1013.24hPa Calm     78% 0in /  0mm 397 W/m2
08:54 55.4 °F /  13 °C 48.2 °F /  9 °C 29.9in /  1013.28hPa NNW 1.2mph /  2km/h 0.6mph /  1km/h 78% 0in /  0mm 434 W/m2
08:59 55.4 °F /  13 °C 48.2 °F /  9 °C 29.9in /  1013.28hPa NNW 1.2mph /  2km/h 0.6mph /  1km/h 77% 0in /  0mm 459 W/m2
09:04 55.4 °F /  13 °C 48.2 °F /  9 °C 29.9in /  1013.24hPa NNW 1.2mph /  2km/h 0.6mph /  1km/h 77% 0in /  0mm 471 W/m2
09:09 55.4 °F /  13 °C 48.2 °F /  9 °C 29.9in /  1013.17hPa N 1.2mph /  2km/h 0.6mph /  1km/h 77% 0in /  0mm 471 W/m2
09:14 55.4 °F /  13 °C 48.2 °F /  9 °C 29.9in /  1013.14hPa N 1.2mph /  2km/h 0.6mph /  1km/h 77% 0in /  0mm 492 W/m2
09:19 57.2 °F /  14 °C 50 °F /  10 °C 29.9in /  1013.14hPa NNW 1.2mph /  2km/h 0.6mph /  1km/h 77% 0in /  0mm 506 W/m2
09:24 57.2 °F /  14 °C 50 °F /  10 °C 29.9in /  1013.14hPa NW 3.7mph /  6km/h 3.1mph /  5km/h 77% 0in /  0mm 515 W/m2
09:29 57.2 °F /  14 °C 50 °F /  10 °C 29.9in /  1013.14hPa NNW 3.1mph /  5km/h 2.5mph /  4km/h 76% 0in /  0mm 533 W/m2
09:34 57.2 °F /  14 °C 50 °F /  10 °C 29.9in /  1013.17hPa NW 3.7mph /  6km/h 4.3mph /  7km/h 76% 0in /  0mm 541 W/m2
09:39 57.2 °F /  14 °C 50 °F /  10 °C 29.9in /  1013.14hPa N 4.3mph /  7km/h 3.7mph /  6km/h 76% 0in /  0mm 552 W/m2
09:44 57.2 °F /  14 °C 50 °F /  10 °C 29.9in /  1013.17hPa N 6.8mph /  11km/h 5.6mph /  9km/h 76% 0in /  0mm 561 W/m2
09:49 57.2 °F /  14 °C 50 °F /  10 °C 29.9in /  1013.17hPa N 4.3mph /  7km/h 3.7mph /  6km/h 76% 0in /  0mm 568 W/m2
09:54 57.2 °F /  14 °C 50 °F /  10 °C 29.9in /  1013.21hPa N 5.6mph /  9km/h 5.6mph /  9km/h 75% 0in /  0mm 578 W/m2
09:59 57.2 °F /  14 °C 50 °F /  10 °C 29.9in /  1013.17hPa N 4.3mph /  7km/h 3.7mph /  6km/h 75% 0in /  0mm 589 W/m2
10:04 57.2 °F /  14 °C 50 °F /  10 °C 29.9in /  1013.11hPa N 6.2mph /  10km/h 4.3mph /  7km/h 74% 0in /  0mm 599 W/m2
10:09 57.2 °F /  14 °C 50 °F /  10 °C 29.9in /  1013.11hPa NNW 4.3mph /  7km/h 5.6mph /  9km/h 74% 0in /  0mm 608 W/m2
10:14 57.2 °F /  14 °C 50 °F /  10 °C 29.9in /  1013.14hPa N 6.8mph /  11km/h 5.6mph /  9km/h 74% 0in /  0mm 615 W/m2
10:19 57.2 °F /  14 °C 50 °F /  10 °C 29.9in /  1013.11hPa N 7.5mph /  12km/h 5.6mph /  9km/h 74% 0in /  0mm 624 W/m2
10:24 57.2 °F /  14 °C 50 °F /  10 °C 29.9in /  1013.04hPa N 6.8mph /  11km/h 5.6mph /  9km/h 74% 0in /  0mm 631 W/m2
10:29 57.2 °F /  14 °C 50 °F /  10 °C 29.9in /  1013.07hPa N 8.1mph /  13km/h 6.2mph /  10km/h 75% 0in /  0mm 631 W/m2
10:34 57.2 °F /  14 °C 50 °F /  10 °C 29.9in /  1013.14hPa N 7.5mph /  12km/h 6.2mph /  10km/h 76% 0in /  0mm 642 W/m2
10:39 57.2 °F /  14 °C 50 °F /  10 °C 29.9in /  1013.11hPa N 8.7mph /  14km/h 6.8mph /  11km/h 77% 0in /  0mm 652 W/m2
10:44 57.2 °F /  14 °C 50 °F /  10 °C 29.9in /  1013.07hPa N 9.9mph /  16km/h 7.5mph /  12km/h 77% 0in /  0mm 656 W/m2
10:49 57.2 °F /  14 °C 51.8 °F /  11 °C 29.9in /  1013.04hPa N 5.6mph /  9km/h 6.2mph /  10km/h 78% 0in /  0mm 664 W/m2
10:54 59 °F /  15 °C 51.8 °F /  11 °C 29.9in /  1013hPa N 5mph /  8km/h 3.7mph /  6km/h 76% 0in /  0mm 671 W/m2
10:59 59 °F /  15 °C 50 °F /  10 °C 29.9in /  1013hPa N 8.7mph /  14km/h 7.5mph /  12km/h 75% 0in /  0mm 682 W/m2
11:04 57.2 °F /  14 °C 50 °F /  10 °C 29.9in /  1013hPa N 9.3mph /  15km/h 8.1mph /  13km/h 76% 0in /  0mm 689 W/m2
11:09 57.2 °F /  14 °C 50 °F /  10 °C 29.9in /  1012.97hPa N 9.9mph /  16km/h 7.5mph /  12km/h 76% 0in /  0mm 694 W/m2
11:14 57.2 °F /  14 °C 50 °F /  10 °C 29.9in /  1012.94hPa N 10.6mph /  17km/h 8.7mph /  14km/h 76% 0in /  0mm 701 W/m2
11:19 57.2 °F /  14 °C 50 °F /  10 °C 29.9in /  1012.94hPa N 10.6mph /  17km/h 7.5mph /  12km/h 77% 0in /  0mm 707 W/m2
11:24 57.2 °F /  14 °C 50 °F /  10 °C 29.9in /  1012.97hPa N 9.9mph /  16km/h 6.8mph /  11km/h 77% 0in /  0mm 714 W/m2
11:29 57.2 °F /  14 °C 50 °F /  10 °C 29.9in /  1012.9hPa N 10.6mph /  17km/h 8.1mph /  13km/h 77% 0in /  0mm 719 W/m2
11:34 57.2 °F /  14 °C 50 °F /  10 °C 29.9in /  1012.9hPa N 8.7mph /  14km/h 8.1mph /  13km/h 77% 0in /  0mm 724 W/m2
11:39 59 °F /  15 °C 51.8 °F /  11 °C 29.9in /  1012.87hPa N 8.7mph /  14km/h 7.5mph /  12km/h 76% 0in /  0mm 729 W/m2
11:44 59 °F /  15 °C 50 °F /  10 °C 29.9in /  1012.9hPa N 9.9mph /  16km/h 7.5mph /  12km/h 76% 0in /  0mm 737 W/m2
11:49 59 °F /  15 °C 50 °F /  10 °C 29.9in /  1012.9hPa N 13.7mph /  22km/h 9.9mph /  16km/h 75% 0in /  0mm 740 W/m2
11:54 57.2 °F /  14 °C 50 °F /  10 °C 29.9in /  1012.9hPa N 9.3mph /  15km/h 6.8mph /  11km/h 76% 0in /  0mm 744 W/m2
11:59 59 °F /  15 °C 51.8 °F /  11 °C 29.9in /  1012.94hPa N 7.5mph /  12km/h 5mph /  8km/h 75% 0in /  0mm 747 W/m2
12:04 59 °F /  15 °C 50 °F /  10 °C 29.9in /  1012.94hPa N 12.4mph /  20km/h 8.7mph /  14km/h 74% 0in /  0mm 749 W/m2
12:09 59 °F /  15 °C 50 °F /  10 °C 29.9in /  1012.9hPa N 8.7mph /  14km/h 6.8mph /  11km/h 74% 0in /  0mm 751 W/m2
12:14 59 °F /  15 °C 51.8 °F /  11 °C 29.9in /  1012.94hPa N 7.5mph /  12km/h 8.7mph /  14km/h 73% 0in /  0mm 758 W/m2
12:19 59 °F /  15 °C 50 °F /  10 °C 29.9in /  1012.9hPa N 13mph /  21km/h 9.3mph /  15km/h 73% 0in /  0mm 761 W/m2
12:24 57.2 °F /  14 °C 50 °F /  10 °C 29.9in /  1012.9hPa N 16.2mph /  26km/h 12.4mph /  20km/h 76% 0in /  0mm 763 W/m2
12:29 57.2 °F /  14 °C 50 °F /  10 °C 29.9in /  1012.9hPa N 14.9mph /  24km/h 10.6mph /  17km/h 79% 0in /  0mm 766 W/m2
12:34 57.2 °F /  14 °C 51.8 °F /  11 °C 29.9in /  1012.9hPa N 11.2mph /  18km/h 9.9mph /  16km/h 81% 0in /  0mm 766 W/m2
12:39 57.2 °F /  14 °C 51.8 °F /  11 °C 29.9in /  1012.9hPa N 13mph /  21km/h 9.9mph /  16km/h 80% 0in /  0mm 772 W/m2
12:44 57.2 °F /  14 °C 51.8 °F /  11 °C 29.9in /  1012.9hPa N 11.2mph /  18km/h 8.7mph /  14km/h 79% 0in /  0mm 773 W/m2
12:49 59 °F /  15 °C 51.8 °F /  11 °C 29.9in /  1012.87hPa N 10.6mph /  17km/h 6.8mph /  11km/h 78% 0in /  0mm 775 W/m2
12:54 59 °F /  15 °C 51.8 °F /  11 °C 29.9in /  1012.94hPa N 13mph /  21km/h 12.4mph /  20km/h 76% 0in /  0mm 777 W/m2
12:59 57.2 °F /  14 °C 50 °F /  10 °C 29.9in /  1012.94hPa N 12.4mph /  20km/h 11.2mph /  18km/h 78% 0in /  0mm 777 W/m2
13:04 57.2 °F /  14 °C 51.8 °F /  11 °C 29.9in /  1012.84hPa N 11.2mph /  18km/h 9.9mph /  16km/h 79% 0in /  0mm 779 W/m2
13:09 57.2 °F /  14 °C 50 °F /  10 °C 29.9in /  1012.87hPa N 14.9mph /  24km/h 13mph /  21km/h 78% 0in /  0mm 780 W/m2
13:14 57.2 °F /  14 °C 50 °F /  10 °C 29.9in /  1012.9hPa N 16.2mph /  26km/h 14.3mph /  23km/h 79% 0in /  0mm 788 W/m2
13:19 57.2 °F /  14 °C 50 °F /  10 °C 29.9in /  1012.9hPa N 12.4mph /  20km/h 10.6mph /  17km/h 79% 0in /  0mm 793 W/m2
13:24 57.2 °F /  14 °C 51.8 °F /  11 °C 29.9in /  1012.9hPa N 13.7mph /  22km/h 10.6mph /  17km/h 78% 0in /  0mm 821 W/m2
13:29 57.2 °F /  14 °C 50 °F /  10 °C 29.9in /  1012.9hPa N 16.8mph /  27km/h 11.8mph /  19km/h 78% 0in /  0mm 846 W/m2
13:34 57.2 °F /  14 °C 50 °F /  10 °C 29.9in /  1012.94hPa N 14.3mph /  23km/h 9.9mph /  16km/h 79% 0in /  0mm 846 W/m2
13:39 57.2 °F /  14 °C 50 °F /  10 °C 29.9in /  1012.94hPa N 12.4mph /  20km/h 9.3mph /  15km/h 80% 0in /  0mm 287 W/m2
13:44 55.4 °F /  13 °C 50 °F /  10 °C 29.9in /  1012.97hPa N 14.3mph /  23km/h 13mph /  21km/h 80% 0in /  0mm 837 W/m2
13:49 57.2 °F /  14 °C 50 °F /  10 °C 29.9in /  1012.97hPa N 16.8mph /  27km/h 13mph /  21km/h 79% 0in /  0mm 779 W/m2
13:54 57.2 °F /  14 °C 50 °F /  10 °C 29.9in /  1012.87hPa N 17.4mph /  28km/h 13mph /  21km/h 80% 0in /  0mm 773 W/m2
13:59 57.2 °F /  14 °C 50 °F /  10 °C 29.9in /  1012.97hPa N 16.8mph /  27km/h 13mph /  21km/h 81% 0in /  0mm 773 W/m2
14:04 57.2 °F /  14 °C 51.8 °F /  11 °C 29.9in /  1012.97hPa N 12.4mph /  20km/h 11.8mph /  19km/h 80% 0in /  0mm 772 W/m2
14:09 57.2 °F /  14 °C 50 °F /  10 °C 29.9in /  1012.94hPa N 15.5mph /  25km/h 13.7mph /  22km/h 79% 0in /  0mm 772 W/m2
14:14 57.2 °F /  14 °C 50 °F /  10 °C 29.9in /  1012.87hPa N 17.4mph /  28km/h 14.3mph /  23km/h 79% 0in /  0mm 768 W/m2
14:19 57.2 °F /  14 °C 50 °F /  10 °C 29.9in /  1012.84hPa N 14.9mph /  24km/h 12.4mph /  20km/h 80% 0in /  0mm 768 W/m2
14:24 57.2 °F /  14 °C 51.8 °F /  11 °C 29.9in /  1012.87hPa N 14.3mph /  23km/h 12.4mph /  20km/h 81% 0in /  0mm 761 W/m2
14:29 57.2 °F /  14 °C 51.8 °F /  11 °C 29.9in /  1012.87hPa N 20.5mph /  33km/h 16.2mph /  26km/h 81% 0in /  0mm 758 W/m2
14:34 57.2 °F /  14 °C 51.8 °F /  11 °C 29.9in /  1012.94hPa N 18mph /  29km/h 14.3mph /  23km/h 81% 0in /  0mm 752 W/m2
14:39 57.2 °F /  14 °C 51.8 °F /  11 °C 29.9in /  1012.84hPa N 16.2mph /  26km/h 12.4mph /  20km/h 81% 0in /  0mm 751 W/m2
14:44 57.2 °F /  14 °C 51.8 °F /  11 °C 29.9in /  1012.84hPa N 15.5mph /  25km/h 11.8mph /  19km/h 80% 0in /  0mm 745 W/m2
14:49 57.2 °F /  14 °C 50 °F /  10 °C 29.9in /  1012.84hPa N 18.6mph /  30km/h 14.9mph /  24km/h 80% 0in /  0mm 742 W/m2
14:54 57.2 °F /  14 °C 50 °F /  10 °C 29.9in /  1012.77hPa N 15.5mph /  25km/h 11.8mph /  19km/h 80% 0in /  0mm 737 W/m2
14:59 57.2 °F /  14 °C 50 °F /  10 °C 29.9in /  1012.73hPa N 15.5mph /  25km/h 11.8mph /  19km/h 80% 0in /  0mm 733 W/m2
15:04 57.2 °F /  14 °C 50 °F /  10 °C 29.9in /  1012.7hPa N 17.4mph /  28km/h 13mph /  21km/h 80% 0in /  0mm 728 W/m2
15:09 57.2 °F /  14 °C 50 °F /  10 °C 29.9in /  1012.67hPa N 16.2mph /  26km/h 12.4mph /  20km/h 80% 0in /  0mm 724 W/m2
15:14 57.2 °F /  14 °C 50 °F /  10 °C 29.9in /  1012.67hPa N 17.4mph /  28km/h 13mph /  21km/h 80% 0in /  0mm 721 W/m2
15:19 57.2 °F /  14 °C 50 °F /  10 °C 29.9in /  1012.67hPa N 16.8mph /  27km/h 12.4mph /  20km/h 80% 0in /  0mm 715 W/m2
15:24 57.2 °F /  14 °C 50 °F /  10 °C 29.9in /  1012.7hPa N 17.4mph /  28km/h 13mph /  21km/h 80% 0in /  0mm 708 W/m2
15:29 57.2 °F /  14 °C 50 °F /  10 °C 29.9in /  1012.7hPa N 18mph /  29km/h 12.4mph /  20km/h 80% 0in /  0mm 701 W/m2
15:34 57.2 °F /  14 °C 51.8 °F /  11 °C 29.9in /  1012.67hPa N 13.7mph /  22km/h 10.6mph /  17km/h 81% 0in /  0mm 696 W/m2
15:39 57.2 °F /  14 °C 51.8 °F /  11 °C 29.9in /  1012.67hPa N 15.5mph /  25km/h 12.4mph /  20km/h 80% 0in /  0mm 689 W/m2
15:44 57.2 °F /  14 °C 51.8 °F /  11 °C 29.9in /  1012.63hPa N 14.9mph /  24km/h 14.3mph /  23km/h 80% 0in /  0mm 684 W/m2
15:49 57.2 °F /  14 °C 51.8 °F /  11 °C 29.9in /  1012.6hPa N 12.4mph /  20km/h 11.8mph /  19km/h 80% 0in /  0mm 675 W/m2
15:54 57.2 °F /  14 °C 51.8 °F /  11 °C 29.9in /  1012.56hPa N 16.2mph /  26km/h 11.8mph /  19km/h 79% 0in /  0mm 670 W/m2
15:59 57.2 °F /  14 °C 51.8 °F /  11 °C 29.9in /  1012.56hPa N 16.2mph /  26km/h 13mph /  21km/h 79% 0in /  0mm 663 W/m2
16:04 57.2 °F /  14 °C 50 °F /  10 °C 29.9in /  1012.6hPa N 13.7mph /  22km/h 9.9mph /  16km/h 78% 0in /  0mm 654 W/m2
16:09 57.2 °F /  14 °C 50 °F /  10 °C 29.9in /  1012.6hPa N 15.5mph /  25km/h 11.2mph /  18km/h 78% 0in /  0mm 647 W/m2
16:14 57.2 °F /  14 °C 50 °F /  10 °C 29.9in /  1012.53hPa N 13.7mph /  22km/h 11.8mph /  19km/h 78% 0in /  0mm 640 W/m2
16:19 57.2 °F /  14 °C 51.8 °F /  11 °C 29.9in /  1012.5hPa N 16.2mph /  26km/h 12.4mph /  20km/h 78% 0in /  0mm 636 W/m2
16:24 57.2 °F /  14 °C 50 °F /  10 °C 29.9in /  1012.5hPa N 15.5mph /  25km/h 15.5mph /  25km/h 78% 0in /  0mm 626 W/m2
16:29 57.2 °F /  14 °C 50 °F /  10 °C 29.9in /  1012.46hPa N 18.6mph /  30km/h 15.5mph /  25km/h 78% 0in /  0mm 621 W/m2
16:34 57.2 °F /  14 °C 50 °F /  10 °C 29.9in /  1012.46hPa N 19.9mph /  32km/h 15.5mph /  25km/h 78% 0in /  0mm 608 W/m2
16:39 57.2 °F /  14 °C 50 °F /  10 °C 29.9in /  1012.33hPa N 17.4mph /  28km/h 13mph /  21km/h 79% 0in /  0mm 599 W/m2
16:44 57.2 °F /  14 °C 50 °F /  10 °C 29.9in /  1012.29hPa N 16.2mph /  26km/h 13.7mph /  22km/h 79% 0in /  0mm 589 W/m2
16:49 57.2 °F /  14 °C 50 °F /  10 °C 29.9in /  1012.29hPa N 16.8mph /  27km/h 13.7mph /  22km/h 79% 0in /  0mm 578 W/m2
16:54 57.2 °F /  14 °C 50 °F /  10 °C 29.9in /  1012.33hPa N 16.2mph /  26km/h 11.2mph /  18km/h 79% 0in /  0mm 566 W/m2
16:59 57.2 °F /  14 °C 50 °F /  10 °C 29.9in /  1012.23hPa N 14.9mph /  24km/h 12.4mph /  20km/h 79% 0in /  0mm 557 W/m2
17:04 57.2 °F /  14 °C 50 °F /  10 °C 29.9in /  1012.19hPa N 16.8mph /  27km/h 13.7mph /  22km/h 78% 0in /  0mm 550 W/m2
17:09 57.2 °F /  14 °C 51.8 °F /  11 °C 29.9in /  1012.23hPa N 13.7mph /  22km/h 9.9mph /  16km/h 80% 0in /  0mm 527 W/m2
17:14 57.2 °F /  14 °C 51.8 °F /  11 °C 29.9in /  1012.19hPa N 13.7mph /  22km/h 9.9mph /  16km/h 81% 0in /  0mm 529 W/m2
17:19 57.2 °F /  14 °C 51.8 °F /  11 °C 29.9in /  1012.23hPa N 14.3mph /  23km/h 11.8mph /  19km/h 81% 0in /  0mm 524 W/m2
17:24 57.2 °F /  14 °C 51.8 °F /  11 °C 29.9in /  1012.19hPa N 18mph /  29km/h 13.7mph /  22km/h 81% 0in /  0mm 513 W/m2
17:29 57.2 °F /  14 °C 51.8 °F /  11 °C 29.9in /  1012.16hPa N 16.2mph /  26km/h 13.7mph /  22km/h 82% 0in /  0mm 503 W/m2
17:34 55.4 °F /  13 °C 51.8 °F /  11 °C 29.9in /  1012.12hPa N 16.8mph /  27km/h 14.3mph /  23km/h 83% 0in /  0mm 487 W/m2
17:39 55.4 °F /  13 °C 51.8 °F /  11 °C 29.9in /  1012.09hPa N 18mph /  29km/h 13.7mph /  22km/h 83% 0in /  0mm 466 W/m2
17:44 55.4 °F /  13 °C 51.8 °F /  11 °C 29.9in /  1012.06hPa N 16.8mph /  27km/h 13.7mph /  22km/h 83% 0in /  0mm 457 W/m2
17:49 55.4 °F /  13 °C 51.8 °F /  11 °C 29.9in /  1011.99hPa N 14.9mph /  24km/h 11.8mph /  19km/h 83% 0in /  0mm 446 W/m2
17:54 55.4 °F /  13 °C 50 °F /  10 °C 29.9in /  1011.99hPa N 17.4mph /  28km/h 13.7mph /  22km/h 82% 0in /  0mm 445 W/m2
17:59 55.4 °F /  13 °C 51.8 °F /  11 °C 29.9in /  1012.02hPa N 17.4mph /  28km/h 13mph /  21km/h 82% 0in /  0mm 443 W/m2
18:04 55.4 °F /  13 °C 51.8 °F /  11 °C 29.9in /  1011.99hPa N 17.4mph /  28km/h 13mph /  21km/h 82% 0in /  0mm 429 W/m2
18:09 55.4 °F /  13 °C 51.8 °F /  11 °C 29.9in /  1011.99hPa N 16.8mph /  27km/h 13.7mph /  22km/h 82% 0in /  0mm 417 W/m2
18:14 55.4 °F /  13 °C 50 °F /  10 °C 29.9in /  1011.92hPa N 17.4mph /  28km/h 13mph /  21km/h 82% 0in /  0mm 408 W/m2
18:19 55.4 °F /  13 °C 50 °F /  10 °C 29.9in /  1011.89hPa N 17.4mph /  28km/h 18mph /  29km/h 82% 0in /  0mm 399 W/m2
18:24 55.4 °F /  13 °C 50 °F /  10 °C 29.9in /  1011.92hPa N 16.8mph /  27km/h 11.8mph /  19km/h 81% 0in /  0mm 390 W/m2
18:29 55.4 °F /  13 °C 50 °F /  10 °C 29.9in /  1011.89hPa N 14.9mph /  24km/h 11.8mph /  19km/h 81% 0in /  0mm 378 W/m2
18:34 55.4 °F /  13 °C 50 °F /  10 °C 29.9in /  1011.85hPa N 15.5mph /  25km/h 12.4mph /  20km/h 82% 0in /  0mm 367 W/m2
18:39 55.4 °F /  13 °C 51.8 °F /  11 °C 29.9in /  1011.79hPa N 12.4mph /  20km/h 9.3mph /  15km/h 83% 0in /  0mm 357 W/m2
18:44 55.4 °F /  13 °C 51.8 °F /  11 °C 29.9in /  1011.79hPa N 13.7mph /  22km/h 10.6mph /  17km/h 83% 0in /  0mm 345 W/m2
18:49 55.4 °F /  13 °C 51.8 °F /  11 °C 29.9in /  1011.92hPa N 14.9mph /  24km/h 11.8mph /  19km/h 83% 0in /  0mm 329 W/m2
18:54 55.4 °F /  13 °C 50 °F /  10 °C 29.9in /  1011.92hPa N 14.9mph /  24km/h 11.8mph /  19km/h 83% 0in /  0mm 316 W/m2
18:59 55.4 °F /  13 °C 51.8 °F /  11 °C 29.9in /  1011.89hPa N 11.2mph /  18km/h 8.7mph /  14km/h 84% 0in /  0mm 304 W/m2
19:04 55.4 °F /  13 °C 51.8 °F /  11 °C 29.9in /  1011.92hPa N 13mph /  21km/h 10.6mph /  17km/h 84% 0in /  0mm 295 W/m2
19:09 55.4 °F /  13 °C 51.8 °F /  11 °C 29.9in /  1011.85hPa N 12.4mph /  20km/h 11.2mph /  18km/h 84% 0in /  0mm 269 W/m2
19:14 55.4 °F /  13 °C 51.8 °F /  11 °C 29.9in /  1011.82hPa N 11.8mph /  19km/h 9.3mph /  15km/h 84% 0in /  0mm 279 W/m2
19:19 55.4 °F /  13 °C 51.8 °F /  11 °C 29.9in /  1011.72hPa N 11.2mph /  18km/h 9.3mph /  15km/h 84% 0in /  0mm 274 W/m2
19:24 55.4 °F /  13 °C 51.8 °F /  11 °C 29.9in /  1011.72hPa N 12.4mph /  20km/h 8.7mph /  14km/h 84% 0in /  0mm 250 W/m2
19:29 55.4 °F /  13 °C 51.8 °F /  11 °C 29.9in /  1011.72hPa N 8.1mph /  13km/h 6.8mph /  11km/h 84% 0in /  0mm 229 W/m2
19:34 55.4 °F /  13 °C 51.8 °F /  11 °C 29.9in /  1011.79hPa N 9.3mph /  15km/h 6.8mph /  11km/h 84% 0in /  0mm 218 W/m2
19:39 55.4 °F /  13 °C 51.8 °F /  11 °C 29.9in /  1011.79hPa N 9.3mph /  15km/h 7.5mph /  12km/h 84% 0in /  0mm 202 W/m2
19:44 55.4 °F /  13 °C 51.8 °F /  11 °C 29.9in /  1011.79hPa N 11.2mph /  18km/h 8.7mph /  14km/h 85% 0in /  0mm 171 W/m2
19:49 55.4 °F /  13 °C 51.8 °F /  11 °C 29.9in /  1011.85hPa N 11.8mph /  19km/h 8.7mph /  14km/h 86% 0in /  0mm 160 W/m2
19:54 55.4 °F /  13 °C 51.8 °F /  11 °C 29.9in /  1011.85hPa N 11.8mph /  19km/h 9.9mph /  16km/h 86% 0in /  0mm 158 W/m2
19:59 55.4 °F /  13 °C 51.8 °F /  11 °C 29.9in /  1011.85hPa N 12.4mph /  20km/h 10.6mph /  17km/h 87% 0in /  0mm 163 W/m2
20:04 55.4 °F /  13 °C 51.8 °F /  11 °C 29.9in /  1011.85hPa N 10.6mph /  17km/h 7.5mph /  12km/h 87% 0in /  0mm 151 W/m2
20:09 55.4 °F /  13 °C 51.8 °F /  11 °C 29.9in /  1011.85hPa N 11.8mph /  19km/h 8.1mph /  13km/h 88% 0in /  0mm 125 W/m2
20:14 55.4 °F /  13 °C 51.8 °F /  11 °C 29.9in /  1011.89hPa N 9.9mph /  16km/h 7.5mph /  12km/h 88% 0in /  0mm 113 W/m2
20:19 55.4 °F /  13 °C 51.8 °F /  11 °C 29.9in /  1011.85hPa N 8.7mph /  14km/h 6.2mph /  10km/h 89% 0in /  0mm 113 W/m2
20:24 55.4 °F /  13 °C 51.8 °F /  11 °C 29.9in /  1011.85hPa N 10.6mph /  17km/h 7.5mph /  12km/h 89% 0in /  0mm 98 W/m2
20:29 53.6 °F /  12 °C 51.8 °F /  11 °C 29.9in /  1011.79hPa N 8.1mph /  13km/h 6.8mph /  11km/h 89% 0in /  0mm 81 W/m2
20:34 53.6 °F /  12 °C 51.8 °F /  11 °C 29.9in /  1011.79hPa N 8.7mph /  14km/h 6.2mph /  10km/h 90% 0in /  0mm 69 W/m2
20:39 53.6 °F /  12 °C 51.8 °F /  11 °C 29.9in /  1011.75hPa N 9.3mph /  15km/h 6.2mph /  10km/h 90% 0in /  0mm 60 W/m2
20:44 53.6 °F /  12 °C 51.8 °F /  11 °C 29.9in /  1011.79hPa N 6.8mph /  11km/h 5mph /  8km/h 90% 0in /  0mm 56 W/m2
20:49 53.6 °F /  12 °C 51.8 °F /  11 °C 29.9in /  1011.79hPa N 6.8mph /  11km/h 5.6mph /  9km/h 90% 0in /  0mm 53 W/m2
20:54 53.6 °F /  12 °C 51.8 °F /  11 °C 29.9in /  1011.85hPa N 6.8mph /  11km/h 5mph /  8km/h 91% 0in /  0mm 49 W/m2
20:59 53.6 °F /  12 °C 51.8 °F /  11 °C 29.9in /  1011.89hPa N 5.6mph /  9km/h 4.3mph /  7km/h 91% 0in /  0mm 44 W/m2
21:04 53.6 °F /  12 °C 51.8 °F /  11 °C 29.9in /  1011.95hPa N 5.6mph /  9km/h 4.3mph /  7km/h 91% 0in /  0mm 40 W/m2
21:09 53.6 °F /  12 °C 51.8 °F /  11 °C 29.9in /  1011.92hPa N 6.2mph /  10km/h 5mph /  8km/h 91% 0in /  0mm 35 W/m2
21:14 53.6 °F /  12 °C 51.8 °F /  11 °C 29.9in /  1011.92hPa NNW 5.6mph /  9km/h 5.6mph /  9km/h 92% 0in /  0mm 30 W/m2
21:19 53.6 °F /  12 °C 51.8 °F /  11 °C 29.9in /  1011.85hPa N 4.3mph /  7km/h 3.7mph /  6km/h 92% 0in /  0mm 28 W/m2
21:24 53.6 °F /  12 °C 51.8 °F /  11 °C 29.9in /  1011.82hPa N 5.6mph /  9km/h 5mph /  8km/h 92% 0in /  0mm 26 W/m2
21:29 53.6 °F /  12 °C 51.8 °F /  11 °C 29.9in /  1011.75hPa N 5.6mph /  9km/h 5.6mph /  9km/h 92% 0in /  0mm 23 W/m2
21:34 53.6 °F /  12 °C 51.8 °F /  11 °C 29.9in /  1011.79hPa NNW 3.7mph /  6km/h 3.1mph /  5km/h 93% 0in /  0mm 19 W/m2
21:39 53.6 °F /  12 °C 51.8 °F /  11 °C 29.9in /  1011.75hPa N 3.7mph /  6km/h 2.5mph /  4km/h 93% 0in /  0mm 14 W/m2
21:44 53.6 °F /  12 °C 51.8 °F /  11 °C 29.9in /  1011.79hPa NNW 3.1mph /  5km/h 2.5mph /  4km/h 93% 0in /  0mm 9 W/m2
21:49 53.6 °F /  12 °C 51.8 °F /  11 °C 29.9in /  1011.82hPa NNW 4.3mph /  7km/h 2.5mph /  4km/h 93% 0in /  0mm 7 W/m2
21:54 53.6 °F /  12 °C 51.8 °F /  11 °C 29.9in /  1011.75hPa NW 3.1mph /  5km/h 2.5mph /  4km/h 93% 0in /  0mm 5 W/m2
21:59 53.6 °F /  12 °C 51.8 °F /  11 °C 29.9in /  1011.75hPa N 3.7mph /  6km/h 3.7mph /  6km/h 93% 0in /  0mm 0 W/m2
22:04 53.6 °F /  12 °C 51.8 °F /  11 °C 29.9in /  1011.72hPa N 4.3mph /  7km/h 4.3mph /  7km/h 94% 0in /  0mm 0 W/m2
22:09 53.6 °F /  12 °C 51.8 °F /  11 °C 29.9in /  1011.79hPa NNW 3.7mph /  6km/h 2.5mph /  4km/h 94% 0in /  0mm 0 W/m2
22:14 53.6 °F /  12 °C 51.8 °F /  11 °C 29.9in /  1011.75hPa N 5.6mph /  9km/h 5mph /  8km/h 94% 0in /  0mm 0 W/m2
22:19 53.6 °F /  12 °C 51.8 °F /  11 °C 29.9in /  1011.72hPa NNW 2.5mph /  4km/h 2.5mph /  4km/h 94% 0in /  0mm 0 W/m2
22:24 53.6 °F /  12 °C 51.8 °F /  11 °C 29.9in /  1011.72hPa N 2.5mph /  4km/h 2.5mph /  4km/h 94% 0in /  0mm 0 W/m2
22:29 53.6 °F /  12 °C 51.8 °F /  11 °C 29.9in /  1011.65hPa WNW 3.1mph /  5km/h 1.2mph /  2km/h 94% 0in /  0mm 0 W/m2
22:34 53.6 °F /  12 °C 51.8 °F /  11 °C 29.9in /  1011.62hPa N 2.5mph /  4km/h 1.9mph /  3km/h 94% 0in /  0mm 0 W/m2
22:39 53.6 °F /  12 °C 51.8 °F /  11 °C 29.9in /  1011.62hPa NNW 1.9mph /  3km/h 1.9mph /  3km/h 94% 0in /  0mm 0 W/m2
22:44 53.6 °F /  12 °C 51.8 °F /  11 °C 29.9in /  1011.58hPa NNW 1.9mph /  3km/h 1.2mph /  2km/h 94% 0in /  0mm 0 W/m2
22:49 53.6 °F /  12 °C 51.8 °F /  11 °C 29.9in /  1011.58hPa N 2.5mph /  4km/h 1.9mph /  3km/h 94% 0in /  0mm 0 W/m2
22:54 53.6 °F /  12 °C 51.8 °F /  11 °C 29.9in /  1011.55hPa N 2.5mph /  4km/h 1.9mph /  3km/h 95% 0in /  0mm 0 W/m2
22:59 53.6 °F /  12 °C 51.8 °F /  11 °C 29.9in /  1011.58hPa NW 1.2mph /  2km/h   95% 0in /  0mm 0 W/m2
23:04 53.6 °F /  12 °C 51.8 °F /  11 °C 29.9in /  1011.68hPa NNW 1.2mph /  2km/h   95% 0in /  0mm 0 W/m2
23:09 53.6 °F /  12 °C 51.8 °F /  11 °C 29.9in /  1011.75hPa NNW 1.2mph /  2km/h 1.2mph /  2km/h 95% 0in /  0mm 0 W/m2
23:14 53.6 °F /  12 °C 51.8 °F /  11 °C 29.9in /  1011.72hPa N 1.2mph /  2km/h 0.6mph /  1km/h 95% 0in /  0mm 0 W/m2
23:19 53.6 °F /  12 °C 51.8 °F /  11 °C 29.9in /  1011.72hPa NW 1.2mph /  2km/h 1.2mph /  2km/h 95% 0in /  0mm 0 W/m2
23:24 53.6 °F /  12 °C 51.8 °F /  11 °C 29.9in /  1011.72hPa NNW 2.5mph /  4km/h 1.2mph /  2km/h 95% 0in /  0mm 0 W/m2
23:29 53.6 °F /  12 °C 51.8 °F /  11 °C 29.9in /  1011.68hPa WSW 1.2mph /  2km/h   95% 0in /  0mm 0 W/m2
23:34 53.6 °F /  12 °C 51.8 °F /  11 °C 29.9in /  1011.65hPa N 1.2mph /  2km/h 1.2mph /  2km/h 95% 0in /  0mm 0 W/m2
23:39 51.8 °F /  11 °C 51.8 °F /  11 °C 29.9in /  1011.58hPa N 1.2mph /  2km/h 0.6mph /  1km/h 95% 0in /  0mm 0 W/m2
23:44 51.8 °F /  11 °C 51.8 °F /  11 °C 29.9in /  1011.58hPa N 0.6mph /  1km/h   95% 0in /  0mm 0 W/m2
23:49 51.8 °F /  11 °C 51.8 °F /  11 °C 29.9in /  1011.48hPa N 1.2mph /  2km/h 1.2mph /  2km/h 95% 0in /  0mm 0 W/m2
23:54 51.8 °F /  11 °C 51.8 °F /  11 °C 29.9in /  1011.45hPa WNW 1.9mph /  3km/h 1.2mph /  2km/h 95% 0in /  0mm 0 W/m2
23:59 51.8 °F /  11 °C 51.8 °F /  11 °C 29.9in /  1011.48hPa WNW 1.2mph /  2km/h   95% 0in /  0mm 0 W/m2
Compliments of Weather Underground - 2 mb